DECAYED

WORLDVIEW 2 DEB, 41736 (Decayed)

Orbit data source: Space-Track

WORLDVIEW 2 DEB, 41736 was space debris in SSO originally from a launch on Thu, 08 Oct 2009 UTC launched from the Air Force Western Test Range (AFWTR). Debris objects in space refer to the collection of defunct objects orbiting the Earth. Examples of debris include non-operational satellites, rocket bodies, and fragments generated from explosions, collisions, or faulty payload assembly.

Not visible in the next 10 days
WORLDVIEW 2 DEB details
Identifier
41736, 2009-055D
Orbit
Decayed
Last TLE update3 months ago
Origin
Flag of USDigitalGlobe (US)
ManufacturerBall
MissionDecayed spacecraft
Bus & MotorUnknown
MassUnknown
Launch date (UTC)
2009-10-08 (15 years ago)
Launch vehicleUnknown
Launch site
Air Force Western Test Range (AFWTR)
Object type
Payload
Rocket body
Debris
Shape & HBRUnknown
Radar Cross SectionSmall (<0.1 m²)

Expand to show TLE details & history

TLE from 3 months ago
0 WORLDVIEW 2 DEB
1 41736U 09055D   24280.31310700  .09685552  21750+0  43330-1 0  9999
2 41736  98.4323  40.2021 0028343 312.9526  46.9367 15.91500427433648
Epoch: 2024-10-06T07:30Z
Definitive object data (Epoch: 2024-10-06T07:30:52.444Z)
Latitude-0.00007°
Longitude-87.97327°
Altitude288.343 km
Speed7.742 km/s
True Right ascension02h 40m 48s
True Declination0° 00' 00"
Sunlit
Object was in full shadow at TLE epoch
Visualization observer readout
Observer readout values are unavailable because the object's trajectory could not be propagated. This is usually caused when the trajectory data is faulty or the object's orbit has decayed.
Visualization observer readout
Observer readout values are unavailable because the object's trajectory could not be propagated. This is usually caused when the trajectory data is faulty or the object's orbit has decayed.
Orbital elements
Apogee altitude313.917 km
Perigee altitude276.089 km
Semi-major axis6,673.14 km
Eccentricity0.0028343
Inclination98.4323°
RAAN40.2021°
Arg. of periapsis312.9526°
True anomaly47.17456°
Mean anomaly46.9367°
Eccentric anomaly47.05557°
Mean motion3.98151 °/min
BSTAR0.04333
Orbital period90.42 mins
Loading maneuver chart data...

WORLDVIEW 2 DEB Visibility forecast

Observer location: undefined°, undefined

This satellite is decayed
Span
Click to sort rows by Start time (UTC) header in descending order
Start Az.
Max El. time (UTC)
Max El. Az.
Max El.
End time (UTC)
End Az.
|